Tracking 34142 objects as of 17-May-2026
HD Live streaming from Space Station
objects crossing your sky now

COSMOS 970 DEB

Track COSMOS 970 DEB now!
10-day predictions


NORAD ID: 10883
Int'l Code: 1977-121AE
Perigee: 903.9 km
Apogee: 1,065.9 km
Inclination: 65.8 °
Period: 104.6 minutes
Semi major axis: 7355 km
RCS: 0.0133 m2 (small)
Launch date: December 21, 1977
Source: Commonwealth of Independent States (former USSR) (CIS)
Launch site: TYURATAM MISSILE AND SPACE COMPLEX (TTMTR)

Note: This is SATELLITE DEBRIS
Your satellite tracking list
Your tracking list is empty




NASA's NSSDC Master Catalog

Two Line Element Set (TLE):
1 10883U 77121AE  26137.48659574  .00000264  00000-0  33826-3 0  9992
2 10883  65.8419 304.2029 0110150 113.2410 281.3666 13.76096887418072
Source of the keplerian elements: AFSPC